Location: Maiden
(35.5760°N, 81.2120°W)
Time: 09:59:25
(UTC-04:00)

Transit 4A - All Passes

Search period start: 04 August 2020 00:00
Search period end: 14 August 2020 00:00
Orbit: 865 x 980 km, 66.8° (Epoch: 04 August)

Date Brightness Start Highest point End Pass type
(mag) Time Alt. Az. Time Alt. Az. Time Alt. Az.
04 Aug - 10:57:08 10° S 11:02:37 42° ESE 11:08:16 10° NE daylight
04 Aug - 12:44:01 10° WSW 12:49:04 28° NW 12:54:17 10° N daylight
04 Aug - 20:02:43 10° N 20:08:14 30° NE 20:13:45 10° ESE daylight
04 Aug - 21:48:43 10° NW 21:54:44 45° WSW 22:00:45 10° S visible
05 Aug - 11:06:00 10° SSW 11:11:49 66° ESE 11:17:50 10° NNE daylight
05 Aug - 12:54:27 10° W 12:58:42 20° NW 13:03:03 10° N daylight
05 Aug - 20:11:43 10° NNW 20:17:46 43° ENE 20:23:48 10° SE daylight
05 Aug - 21:58:30 10° NW 22:03:53 29° WSW 22:09:16 10° SSW visible
06 Aug - 09:33:32 10° ESE 09:35:38 12° E 09:37:46 10° E daylight
06 Aug - 11:15:12 10° SSW 11:21:05 82° WNW 11:27:13 10° NNE daylight
06 Aug - 13:05:29 10° WNW 13:08:26 14° NW 13:11:26 10° NNW daylight
06 Aug - 18:37:27 10° NNE 18:39:35 12° NE 18:41:42 10° ENE daylight
06 Aug - 20:20:51 10° NNW 20:27:12 64° ENE 20:33:32 10° SE daylight
06 Aug - 22:08:43 10° WNW 22:12:59 19° WSW 22:17:14 10° SW visible
07 Aug - 09:40:31 10° SSE 09:44:39 20° ESE 09:48:52 10° ENE daylight
07 Aug - 11:24:41 10° SW 11:30:27 54° WNW 11:36:27 10° NNE daylight
07 Aug - 18:45:24 10° N 18:49:22 17° NE 18:53:21 10° E daylight
07 Aug - 20:30:08 10° NNW 20:36:32 87° WSW 20:42:57 10° SSE daylight
07 Aug - 22:20:08 10° W 22:21:59 11° W 22:23:50 10° WSW visible
08 Aug - 09:48:37 10° SSE 09:53:43 31° ESE 09:58:58 10° NE daylight
08 Aug - 11:34:30 10° WSW 11:39:55 36° NW 11:45:32 10° N daylight
08 Aug - 18:54:01 10° N 18:59:03 24° NE 19:04:06 10° ESE daylight
08 Aug - 20:39:33 10° NW 20:45:49 59° WSW 20:52:04 10° S visible
09 Aug - 09:57:14 10° S 10:02:52 49° ESE 10:08:41 10° NE daylight
09 Aug - 11:44:39 10° WSW 11:49:29 25° NW 11:54:26 10° N daylight
09 Aug - 19:02:54 10° N 19:08:39 34° NE 19:14:23 10° ESE daylight
09 Aug - 20:49:10 10° NW 20:55:01 38° WSW 21:00:50 10° S visible
10 Aug - 10:06:13 10° SSW 10:12:05 77° ESE 10:18:12 10° NNE daylight
10 Aug - 11:55:16 10° W 11:59:09 17° NW 12:03:07 10° N daylight
10 Aug - 19:11:57 10° NNW 19:18:08 50° ENE 19:24:19 10° SE daylight
10 Aug - 20:59:05 10° NW 21:04:08 25° WSW 21:09:11 10° SSW visible
11 Aug - 08:32:44 10° SE 08:35:50 15° ESE 08:38:58 10° ENE daylight
11 Aug - 10:15:31 10° SW 10:21:24 71° WNW 10:27:31 10° NNE daylight
11 Aug - 12:06:40 10° WNW 12:08:55 12° NW 12:11:12 10° NNW daylight
11 Aug - 17:37:07 10° NNE 17:40:05 13° NE 17:43:03 10° ENE daylight
11 Aug - 19:21:08 10° NNW 19:27:32 74° ENE 19:33:55 10° SSE daylight
11 Aug - 21:09:33 10° WNW 21:13:11 16° WSW 21:16:50 10° SW visible
12 Aug - 08:40:17 10° SSE 08:44:52 24° ESE 08:49:32 10° NE daylight
12 Aug - 10:25:07 10° SW 10:30:48 47° WNW 10:36:42 10° NNE daylight
12 Aug - 17:45:25 10° N 17:49:51 19° NE 17:54:16 10° E daylight
12 Aug - 19:30:28 10° NNW 19:36:51 76° WSW 19:43:14 10° SSE daylight
13 Aug - 08:48:36 10° S 08:53:57 37° ESE 08:59:28 10° NE daylight
13 Aug - 10:35:03 10° WSW 10:40:18 32° NW 10:45:44 10° N daylight
13 Aug - 17:54:09 10° N 17:59:30 27° NE 18:04:50 10° ESE daylight
13 Aug - 19:39:57 10° NW 19:46:06 50° WSW 19:52:13 10° S daylight
